Temp
21 20 19 19 19 19 19 19 19 19 18 18 18 17 17 17 17 18 19 20 20 19 19 20 20 20 20 21 21 22 22 22 22 22 23 22 22 22 23 23 23 23 24 22 23 26 24 23 25 25 25 24 23 23 22 21 20 20 19 19 20 19 18 18 18 18 19 19 19 19 19 18 19 19 19 19 19 20 20 20 20 20 20 20 20 20
20 19 19 19 19 19 20 20 19 19 19 18 18 17 17 17 17 18 19 19 20 19 19 20 19 19 20 20 21 21 21 21 21 22 22 22 22 22 22 23 23 23 23 23 23 24 24 24 24 25 24 23 22 22 21 20 19 19 20 20 20 19 18 18 18 18 19 20 20 19 19 19 19 19 19 19 20 20 20 20 20 21 21 20 20 20
20 19 19 20 20 20 20 20 19 19 18 18 17 17 16 17 17 18 19 19 20 19 19 20 19 19 20 20 21 21 21 21 21 21 22 22 22 22 22 22 23 23 23 24 23 22 22 23 24 24 23 22 22 22 21 20 19 19 19 20 20 19 18 19 19 18 19 20 21 20 20 19 19 19 19 19 19 20 20 20 21 21 21 21 20 21
18 19 20 20 20 19 19 19 19 18 18 17 17 17 16 17 17 17 18 19 19 19 19 19 18 18 19 20 20 21 21 21 21 22 21 21 21 21 21 21 21 22 23 23 24 23 22 22 22 22 22 22 21 21 20 19 19 19 19 20 20 19 19 20 20 19 19 21 20 20 19 19 20 20 20 19 20 20 20 20 21 21 21 21 21 21
18 19 20 20 19 19 19 19 18 17 17 17 17 17 17 17 17 17 18 18 18 18 19 18 17 18 19 19 20 20 21 21 20 20 19 19 19 19 19 19 19 20 21 22 23 23 23 22 21 22 23 22 21 20 19 18 19 19 20 21 21 20 20 21 20 19 19 19 18 18 18 18 19 19 19 19 19 20 20 20 20 21 21 21 21 21
19 20 20 19 19 19 18 18 17 17 16 16 17 18 17 17 17 17 17 17 17 17 18 18 16 16 19 19 19 20 20 20 19 18 17 18 18 18 18 18 18 18 18 19 20 21 22 21 20 20 21 20 20 21 20 19 20 20 21 22 21 21 21 21 21 19 18 18 18 17 17 17 17 17 17 19 19 19 20 20 20 21 21 21 21 21
19 19 19 19 18 18 18 17 17 17 16 16 17 18 18 17 17 17 17 16 15 16 18 18 16 15 17 18 19 19 18 17 17 17 17 17 17 17 17 17 17 17 17 18 18 18 20 19 19 19 19 19 20 21 20 19 19 20 22 22 22 22 22 22 22 19 17 18 18 18 18 17 17 17 18 19 20 20 20 20 20 21 21 21 21 21
19 19 18 19 18 18 17 17 17 17 16 16 18 18 17 17 16 16 16 16 16 16 17 18 17 16 16 18 18 17 16 16 16 16 16 16 16 16 17 17 17 17 17 17 17 17 18 18 19 19 19 20 21 21 20 19 19 20 22 22 22 22 22 22 21 18 17 18 17 17 18 17 18 18 18 19 19 20 20 20 20 20 20 21 21 21
19 18 18 18 18 17 17 17 17 17 16 16 17 17 17 16 16 16 16 16 16 16 16 17 17 16 16 17 17 16 15 15 15 16 15 15 16 16 16 16 16 16 16 16 16 16 17 17 17 18 19 20 21 21 20 19 19 20 22 22 21 21 21 22 20 18 18 18 17 17 17 17 18 18 18 19 19 20 20 19 20 20 20 20 21 21
18 18 18 18 17 17 17 17 17 16 16 16 17 17 16 16 16 16 16 15 16 15 15 16 16 16 15 15 15 15 14 14 14 15 15 15 15 15 15 15 15 15 16 16 16 16 16 16 16 17 18 19 20 20 20 19 19 20 21 21 21 21 22 21 20 18 18 17 17 17 17 18 18 18 18 19 19 19 19 19 20 20 20 20 20 20
18 19 19 18 17 17 18 17 17 16 15 16 16 15 16 16 16 16 16 15 15 15 16 16 16 15 15 14 14 14 14 14 14 14 14 15 15 15 15 15 15 15 15 15 15 16 16 16 16 16 17 18 19 19 20 19 19 20 20 20 21 21 21 21 20 19 18 17 17 17 17 18 18 18 18 18 18 18 18 19 20 20 20 20 20 20
18 19 18 18 18 18 17 17 17 16 15 15 15 14 15 16 16 16 16 15 15 15 16 16 16 15 14 14 14 14 14 14 14 14 14 14 14 14 14 14 14 14 14 14 14 15 15 15 15 15 16 17 18 18 19 19 20 20 20 21 21 20 21 21 21 19 18 17 17 17 17 18 18 18 18 18 18 18 18 19 19 20 20 20 20 20
17 18 18 18 18 17 17 16 16 16 15 15 14 14 14 14 14 14 14 15 15 15 16 16 15 15 14 14 14 14 14 14 14 14 14 14 14 14 14 14 14 14 14 14 14 14 14 14 14 15 15 16 17 17 18 18 19 20 21 21 20 19 20 21 21 20 18 17 17 17 17 18 18 18 18 18 19 19 19 19 19 19 20 20 20 20
16 17 17 17 17 17 16 15 15 15 15 14 14 14 13 12 11 11 12 13 14 14 15 15 14 14 14 14 14 14 14 14 14 14 14 14 13 13 13 13 13 13 13 13 14 14 14 14 14 14 14 15 16 17 17 18 19 20 20 20 20 19 19 20 21 20 18 17 18 18 18 18 18 17 17 18 18 18 18 19 19 19 19 19 20 20
15 15 17 17 17 17 16 15 15 14 14 14 14 14 13 12 11 11 12 12 12 13 13 14 14 15 15 14 14 14 14 15 15 14 14 14 13 13 13 13 13 13 13 13 13 13 13 13 13 13 14 15 15 16 16 17 18 19 20 20 20 19 18 19 20 19 18 18 18 18 17 17 17 17 17 18 18 19 18 18 19 19 19 19 20 20
15 15 17 17 16 17 16 16 16 15 15 15 14 14 13 13 12 12 12 12 12 12 12 13 14 15 15 14 14 14 14 14 14 14 14 13 13 13 12 12 12 12 12 13 13 13 13 13 13 13 13 14 15 15 16 17 18 18 19 20 20 19 19 19 19 19 18 18 18 17 17 17 17 17 17 18 19 20 20 19 19 19 19 19 19 20
15 15 17 16 16 16 15 15 15 15 15 15 14 13 13 13 12 12 12 12 12 11 12 13 14 15 15 14 14 14 14 13 14 13 13 13 12 12 12 12 12 12 12 12 12 12 13 13 13 13 13 13 14 15 15 16 17 18 19 19 20 19 19 19 19 19 19 18 18 17 17 17 17 17 17 18 18 19 19 19 19 19 19 19 20 20
15 15 17 16 15 15 15 15 15 14 15 14 14 13 13 13 13 12 11 12 11 11 12 13 14 13 14 14 14 13 13 13 13 13 12 12 12 11 11 11 11 12 12 12 12 12 12 13 13 13 13 13 14 14 15 16 17 17 18 19 19 19 19 19 19 19 19 18 17 17 17 17 17 17 18 18 18 18 18 19 18 18 19 19 20 20
16 15 16 16 15 15 15 14 14 14 14 14 13 13 13 13 13 12 11 11 11 11 12 13 14 13 13 13 13 12 12 12 12 12 12 11 11 11 11 11 11 11 12 12 12 12 12 12 12 12 13 13 14 14 15 16 16 17 18 19 19 19 20 19 19 19 18 18 17 17 17 17 17 18 18 17 18 18 18 18 18 18 19 19 20 20
16 15 15 16 16 15 14 14 13 13 13 13 13 12 12 12 12 12 11 11 11 11 11 12 13 13 13 13 12 12 12 12 12 11 11 11 11 11 11 11 11 11 11 12 12 12 12 12 12 12 13 13 13 14 15 16 16 17 18 19 19 19 20 19 19 18 18 18 18 17 17 17 17 17 18 17 17 18 18 18 18 19 19 19 20 20
16 14 14 15 15 14 14 13 13 13 13 13 12 11 11 12 12 11 11 11 11 11 11 11 11 13 14 13 13 12 12 12 12 11 11 11 10 11 11 11 11 11 11 12 12 12 12 12 12 12 13 13 13 14 15 15 16 16 17 19 19 19 19 19 19 18 18 18 18 17 17 17 17 17 17 17 17 18 18 19 19 19 19 19 19 20
16 15 14 14 14 13 13 12 13 13 12 12 11 10 10 11 11 11 11 12 11 11 11 10 11 12 14 14 13 13 12 12 12 11 10 10 10 10 11 11 11 11 11 12 12 12 12 12 12 12 12 13 13 14 15 15 16 16 17 18 19 19 19 19 19 19 18 18 17 17 18 17 17 17 17 17 17 18 18 18 19 19 19 19 20 20
16 15 14 14 13 12 12 11 11 11 11 11 10 10 10 10 10 10 11 11 11 11 11 10 10 12 14 14 13 13 12 12 11 11 10 10 10 10 11 11 11 11 11 12 12 12 12 12 12 12 12 13 13 14 15 15 16 16 17 18 19 19 19 19 19 19 19 18 17 18 18 18 17 17 17 17 17 18 18 18 18 19 19 19 19 20
16 15 14 14 13 12 11 11 11 11 11 11 10 10 10 10 10 10 10 10 10 10 11 10 10 12 14 14 13 12 12 11 11 11 10 10 10 11 11 11 11 11 11 12 11 11 12 12 12 12 12 13 13 14 14 15 16 16 17 18 18 19 19 19 19 19 19 18 18 18 18 17 17 17 17 17 17 18 18 18 18 19 19 19 19 20
16 15 14 14 13 13 12 11 11 12 11 10 10 10 10 10 10 9 9 9 10 10 10 9 10 12 13 13 13 12 11 11 11 11 10 10 10 11 11 11 11 11 11 11 11 11 11 12 12 12 12 13 13 14 14 15 15 16 16 18 19 19 19 19 19 19 19 18 18 17 17 17 17 17 17 17 17 17 18 18 18 19 19 19 19 20
16 15 15 13 13 13 13 13 13 13 11 9 9 10 10 9 9 10 10 9 9 10 10 9 10 11 12 12 12 11 11 11 10 10 10 10 10 10 10 11 11 11 11 11 11 11 11 11 12 12 12 12 13 13 14 14 15 16 16 17 19 20 19 18 19 19 19 18 18 17 17 17 17 17 17 17 17 17 18 18 18 19 19 19 19 19
16 15 15 14 13 13 14 14 13 12 10 10 10 10 10 10 9 9 10 9 9 9 9 10 10 10 11 11 11 11 10 10 10 10 10 10 10 10 10 10 11 10 10 10 10 11 11 11 11 11 12 12 13 13 14 14 15 15 16 17 19 20 20 19 18 18 18 18 18 17 17 17 17 17 17 17 17 17 18 18 18 18 18 18 19 19
16 15 16 15 15 15 14 14 13 12 11 11 11 11 10 10 9 9 10 10 10 9 9 10 10 9 10 10 10 10 10 10 10 10 10 10 10 10 10 10 10 10 10 10 10 10 10 10 11 11 11 12 12 13 14 14 15 15 16 17 18 19 19 18 18 18 18 18 17 17 17 17 17 17 17 17 17 17 18 18 17 17 17 16 17 19
16 15 16 15 15 15 13 12 12 11 11 11 11 11 11 10 10 10 10 10 10 9 10 10 10 9 10 10 10 10 10 10 9 10 10 10 10 10 10 10 9 9 9 9 10 10 10 10 10 11 11 11 12 13 13 14 15 15 16 17 18 19 19 19 18 18 18 18 17 17 17 17 17 17 17 17 17 17 18 17 17 17 17 16 16 18
16 15 16 16 16 15 12 11 11 11 11 11 11 11 11 10 10 10 10 10 9 9 10 10 9 9 10 10 10 10 10 10 10 10 10 10 10 10 9 9 9 9 9 9 9 10 10 10 10 11 11 11 12 12 13 13 14 16 16 17 18 18 19 19 19 18 18 18 17 17 17 17 17 17 17 17 17 17 17 18 17 17 17 16 16 17
16 16 16 16 15 15 12 11 11 12 11 11 11 11 11 11 11 11 10 10 10 9 9 9 9 10 10 11 10 10 10 10 10 10 9 9 9 9 9 8 8 8 8 9 9 9 10 10 10 11 11 11 11 12 13 13 15 16 16 17 17 17 18 19 18 18 18 18 18 18 18 18 17 17 17 17 17 17 17 17 17 17 17 16 15 16
16 16 16 15 15 15 13 11 11 11 11 12 12 12 12 11 11 11 10 10 10 9 9 9 9 9 10 11 10 10 10 10 10 10 9 9 9 9 8 8 8 8 8 9 9 9 9 10 10 11 11 11 12 12 13 14 15 16 16 17 17 17 17 18 18 17 17 17 17 17 17 17 17 17 17 17 17 18 17 17 17 17 17 16 15 16
16 16 16 15 14 15 13 11 11 11 11 12 12 12 12 12 11 11 10 10 10 10 9 9 9 10 10 10 10 10 10 9 9 9 9 9 9 8 8 8 8 8 8 8 9 9 9 10 10 11 11 11 12 12 13 14 15 16 17 17 17 17 17 17 18 17 17 17 16 16 17 17 17 17 17 17 17 18 17 17 17 17 17 16 16 16
16 15 16 15 14 15 13 11 11 12 11 12 13 13 13 12 11 11 11 10 10 10 10 9 10 10 10 10 10 9 9 9 9 9 9 9 8 8 8 8 8 8 8 8 8 9 9 10 10 11 11 12 12 12 13 14 15 16 17 17 17 17 17 17 17 18 18 18 17 16 16 16 16 17 17 17 17 17 17 17 17 17 17 17 16 16
16 15 15 15 14 14 12 11 12 12 12 13 14 14 13 13 12 11 11 11 10 10 10 10 10 10 10 10 10 9 9 9 9 9 10 9 8 8 7 7 8 8 8 8 8 9 9 9 10 11 11 11 12 12 13 14 15 16 17 17 16 16 17 17 17 17 17 17 17 16 15 15 16 16 16 16 16 17 17 17 17 17 17 17 16 16
16 15 15 14 14 14 13 12 12 12 13 13 14 13 13 12 12 11 11 11 10 10 10 10 10 10 10 10 10 9 9 9 9 10 10 9 8 8 7 7 7 7 8 8 8 9 9 9 10 11 11 12 12 13 14 15 16 16 17 17 16 16 16 16 16 16 16 16 16 15 15 15 15 15 16 16 16 17 17 17 17 17 17 17 16 16
16 16 15 14 14 13 13 12 12 12 12 12 13 13 12 12 11 10 10 11 10 11 11 10 10 10 10 10 10 9 9 9 10 10 9 9 8 8 8 8 8 7 8 8 8 9 9 9 11 11 12 13 13 13 14 15 16 17 17 17 16 15 15 15 15 16 16 15 15 15 15 15 15 15 15 15 16 17 17 17 17 17 17 17 16 16
15 15 15 14 14 13 13 12 12 11 12 12 13 13 13 12 11 11 10 10 11 11 11 10 10 10 10 9 9 9 9 9 9 9 9 8 8 8 8 8 8 8 8 8 8 9 9 9 11 12 12 13 14 15 15 16 16 17 17 16 15 15 15 15 16 16 15 15 15 15 15 16 16 16 15 15 15 16 16 16 16 16 16 16 16 16
15 14 14 14 13 13 13 12 12 11 12 12 13 13 13 12 12 11 11 10 11 11 11 10 10 10 10 9 9 9 9 9 8 8 8 8 8 8 8 8 7 8 8 8 8 8 8 9 11 11 11 12 12 14 15 16 17 17 16 15 15 15 15 15 16 16 15 15 15 15 15 16 16 17 17 16 16 16 16 16 16 16 17 16 16 16
15 14 14 14 13 12 12 12 12 12 12 13 13 13 13 12 12 12 10 10 11 12 11 10 10 10 10 9 9 9 8 9 8 8 8 8 8 8 8 7 7 7 7 8 8 8 8 9 10 10 10 11 11 12 14 16 17 17 16 15 15 15 15 15 16 16 15 14 14 14 15 15 15 16 16 16 16 16 16 16 16 16 17 16 16 16
14 14 13 13 13 13 12 12 12 13 13 13 13 13 13 12 12 10 9 10 12 11 11 10 10 11 10 9 9 9 9 9 8 8 8 8 8 8 8 8 8 7 7 8 8 8 8 9 9 10 10 10 10 11 14 16 17 17 16 15 15 15 15 16 17 18 17 16 14 13 14 15 15 16 16 16 16 16 16 15 15 15 16 15 15 16
14 13 13 13 13 13 12 12 12 12 13 14 13 13 13 12 10 10 11 12 12 11 11 11 11 11 10 9 9 9 9 9 8 8 8 8 7 7 7 8 7 7 7 7 7 8 8 8 9 9 9 10 10 10 12 13 14 15 15 15 15 15 16 16 18 19 19 17 14 13 14 15 15 16 16 15 15 16 16 16 16 15 15 15 15 15
14 13 13 13 13 12 12 12 11 11 13 14 13 13 13 12 11 12 12 12 12 11 11 11 11 11 11 10 9 9 9 8 8 8 7 7 7 7 7 7 7 7 7 7 7 7 8 8 9 9 9 9 9 9 10 11 11 12 13 13 13 15 17 17 17 17 18 16 14 13 14 14 15 15 15 15 16 16 16 16 15 15 15 15 15 16
14 14 13 13 13 13 12 12 12 12 14 14 13 13 13 13 13 13 12 12 12 12 11 11 11 11 11 10 10 9 9 8 8 8 7 7 7 7 7 7 7 7 7 7 7 7 8 8 8 9 8 8 9 9 9 9 10 10 11 11 12 14 17 18 17 16 16 15 14 14 15 15 15 15 15 16 16 16 16 15 15 15 15 15 16 16
15 15 14 14 14 13 13 13 14 14 14 14 13 13 13 13 13 13 12 12 12 12 11 11 11 11 11 10 10 9 9 8 8 7 7 7 7 7 7 7 7 7 7 7 7 7 7 8 8 8 8 8 8 8 8 8 8 9 9 10 11 13 16 19 18 16 15 15 15 15 15 15 15 16 15 15 15 15 15 15 15 15 15 15 15 15
15 15 15 15 15 14 14 14 14 14 14 14 14 14 13 14 13 13 12 12 12 12 11 11 11 11 11 11 10 10 9 8 8 7 7 7 7 7 7 7 7 7 7 7 7 7 7 8 8 8 8 8 8 8 8 7 8 8 8 10 11 12 14 17 17 15 15 16 17 16 16 16 16 16 15 14 14 15 15 15 15 15 15 15 15 15
16 15 15 15 14 14 13 14 14 15 15 14 14 13 13 13 13 13 13 13 12 12 12 12 11 11 11 11 10 10 9 9 8 7 7 7 7 7 7 7 7 7 7 7 7 7 7 7 7 7 7 7 7 7 7 7 7 7 8 9 11 12 13 14 15 15 15 16 17 17 17 17 17 17 16 15 15 15 16 16 15 15 15 15 15 15
15 15 15 15 14 14 14 14 14 14 14 14 13 13 14 13 13 13 13 13 12 12 12 12 11 11 11 11 11 10 10 9 8 8 7 7 7 7 7 7 7 7 7 7 7 7 7 7 7 7 7 7 7 7 7 7 7 7 8 9 10 11 12 12 12 13 14 15 16 17 17 16 16 16 16 16 15 15 15 15 15 15 15 16 16 15
15 15 14 14 14 14 14 14 14 14 14 14 13 13 14 14 13 13 13 13 12 13 12 11 10 10 11 11 11 10 10 9 9 8 7 7 7 7 7 7 7 7 7 7 7 7 7 7 7 7 7 6 6 6 6 6 6 7 7 8 9 10 11 11 12 12 13 14 15 15 16 16 16 15 15 15 14 14 14 14 14 14 15 16 16 15
15 15 14 14 14 14 14 15 14 13 14 14 14 14 14 14 13 13 13 13 13 12 12 12 11 10 10 11 10 10 10 10 9 8 8 8 7 6 6 7 7 7 7 7 7 7 7 7 7 6 6 6 6 6 6 6 6 6 7 7 8 9 10 10 11 12 12 12 12 13 14 16 16 16 16 16 15 15 14 14 14 14 14 15 15 15
16 15 15 14 14 14 15 15 14 14 14 14 14 14 14 14 13 13 13 13 13 12 12 12 12 11 11 11 10 10 10 10 9 8 8 8 7 6 6 7 6 7 7 7 7 7 7 7 6 6 6 6 6 6 6 6 6 6 6 7 7 8 9 10 10 10 11 11 11 12 13 14 15 16 17 17 17 17 16 15 15 15 15 16 16 15
Height
773 782 788 788 788 785 782 780 780 782 783 784 786 788 788 787 784 776 770 762 758 766 765 760 761 759 755 751 746 743 742 743 743 741 740 740 740 740 739 738 737 736 732 729 728 727 728 729 729 730 731 732 735 737 738 738 738 740 743 745 748 752 755 758 762 765 771 774 772 774 776 777 780 782 782 780 781 785 791 796 799 801 801 802 804 805
775 786 790 784 782 780 778 776 777 779 780 781 785 788 787 786 782 773 768 762 757 765 765 757 760 761 755 752 747 744 745 745 743 743 741 739 739 740 739 737 735 734 731 728 728 726 726 726 727 728 729 730 732 734 736 737 738 739 741 743 746 750 753 757 759 762 769 771 767 766 769 772 776 780 782 782 781 783 788 793 795 797 799 800 801 803
783 788 785 778 777 776 775 775 777 779 781 784 785 788 789 784 779 773 768 763 759 765 766 760 763 763 755 751 747 744 746 745 741 741 741 738 738 738 738 737 734 732 731 729 728 725 724 723 724 725 726 728 730 732 733 734 736 738 740 743 745 747 750 754 757 759 763 764 763 763 766 769 773 776 779 782 783 785 787 790 793 795 796 797 798 799
792 787 779 775 775 777 778 776 778 782 784 786 786 789 789 780 780 780 772 766 762 764 766 763 765 763 755 751 748 745 744 743 741 740 741 741 742 741 740 739 738 735 733 730 728 725 723 721 722 723 723 725 729 732 733 733 734 736 738 741 743 746 748 751 753 755 757 758 760 763 765 767 769 770 773 777 782 785 787 789 790 792 792 794 795 796
790 782 775 776 777 778 781 780 782 787 787 787 785 786 786 779 780 780 772 766 764 764 762 762 769 766 756 755 752 745 742 742 743 745 746 745 745 744 742 742 741 740 737 733 729 725 722 721 720 720 720 722 726 730 731 731 732 733 735 738 740 743 745 747 749 751 754 757 759 762 766 769 769 770 771 773 777 781 784 786 787 788 789 791 792 794
784 777 775 779 780 780 783 784 785 788 790 790 784 779 780 778 777 775 772 770 774 775 763 763 780 776 761 758 756 750 748 750 752 753 753 751 748 746 746 745 743 741 740 738 734 729 724 721 719 719 719 720 722 725 728 729 729 730 732 735 737 739 742 744 746 748 752 755 757 760 763 766 766 767 767 767 771 776 779 781 783 785 786 787 789 791
781 778 778 781 782 783 785 787 785 785 792 793 782 774 776 776 776 775 774 777 783 782 766 763 780 783 768 761 758 756 758 759 758 757 756 755 753 752 751 749 746 744 744 743 739 734 729 724 720 719 718 718 719 720 724 727 728 729 730 732 734 736 739 741 742 745 749 752 755 757 759 761 761 762 762 762 766 770 774 776 779 781 783 784 786 788
781 782 782 781 784 787 790 790 785 784 793 791 778 774 777 776 777 776 775 780 780 776 770 764 770 780 777 766 761 762 764 764 762 760 759 757 756 754 753 751 749 748 748 746 742 736 732 728 723 720 717 715 716 717 720 724 726 727 728 730 732 734 736 738 740 742 745 749 752 755 757 758 758 759 760 761 764 767 771 774 776 778 780 781 783 785
781 784 785 783 787 791 790 788 785 785 790 786 776 776 777 775 776 774 775 779 776 776 780 772 767 779 780 769 765 767 768 771 769 766 765 763 761 758 754 753 751 750 748 746 742 737 733 730 726 722 717 714 713 714 716 719 722 724 726 728 730 732 734 735 737 739 742 746 749 752 755 756 756 757 759 761 763 765 767 770 773 776 778 779 781 782
783 783 782 783 790 791 787 785 783 785 789 783 777 776 774 773 773 773 776 778 778 782 783 776 773 781 784 777 774 774 775 779 775 770 768 765 763 761 758 755 752 750 746 743 740 736 734 731 727 725 722 717 713 711 712 715 719 722 724 726 727 729 731 733 735 737 740 743 747 750 752 753 754 755 756 759 761 762 763 766 769 771 773 775 778 779
783 779 779 783 788 787 784 783 782 785 786 780 779 780 776 773 772 772 775 776 781 786 782 776 775 781 787 786 782 779 781 782 778 773 769 764 762 761 759 757 754 751 747 743 740 737 734 732 728 727 725 723 719 714 711 712 716 719 722 724 725 727 729 730 733 735 737 740 744 747 749 750 751 752 754 756 757 759 761 762 764 766 769 771 774 776
784 782 783 784 784 783 783 783 781 784 785 782 784 786 781 779 776 775 777 779 787 789 779 775 775 779 788 788 783 781 780 779 778 776 772 767 764 761 759 758 755 753 750 746 743 738 735 732 729 728 727 725 722 720 715 711 712 716 719 721 723 725 726 728 730 732 735 738 740 743 746 747 748 748 749 751 753 755 757 759 760 762 765 767 770 774
789 787 787 785 783 783 786 788 786 784 785 787 790 791 792 796 796 796 793 789 790 787 776 776 778 781 787 785 782 781 779 777 777 775 774 771 767 764 760 757 755 753 751 747 744 740 737 734 731 730 729 726 723 722 721 716 711 712 715 717 719 721 723 725 727 729 732 735 737 739 742 744 745 745 746 748 751 752 754 756 757 758 761 763 766 770
800 793 788 788 788 784 788 796 797 794 792 793 794 795 802 811 817 818 809 800 797 790 779 778 782 784 785 783 780 780 778 775 774 773 773 772 769 766 761 758 755 752 750 747 744 741 738 736 733 731 730 728 723 721 721 720 715 710 710 713 715 717 720 722 723 726 728 731 734 736 738 740 743 745 747 749 752 755 756 756 756 757 759 761 763 766
811 806 794 792 792 788 790 795 798 798 797 796 795 796 803 811 818 817 810 807 806 800 789 783 782 782 781 779 777 776 774 772 771 771 770 769 768 765 761 757 754 750 747 745 742 740 738 735 733 731 729 727 723 720 719 719 718 713 707 708 711 714 716 719 720 722 725 728 730 733 735 738 742 744 745 747 751 754 756 757 758 758 759 761 762 763
811 808 794 791 790 788 792 792 791 796 797 794 794 799 803 806 811 811 808 807 808 807 801 790 782 777 775 775 773 771 772 771 770 769 768 767 765 762 760 756 752 748 744 742 740 737 735 733 730 727 725 723 720 719 718 717 718 716 709 705 707 710 712 715 717 719 722 725 727 730 733 737 740 742 743 744 746 748 750 754 757 758 759 761 763 764
809 805 792 790 793 790 794 794 792 796 798 796 798 802 802 802 806 809 808 805 807 810 802 789 784 778 775 776 772 770 773 772 770 768 767 766 763 761 759 755 751 747 743 740 738 735 732 729 727 724 721 720 718 716 716 715 715 715 711 705 703 706 709 711 713 716 718 722 725 727 731 735 737 739 740 741 742 745 747 750 753 755 757 759 761 763
807 806 793 791 797 795 793 795 795 796 796 799 802 802 800 799 801 808 812 809 809 810 799 788 787 785 783 780 775 774 777 774 771 769 766 765 763 760 757 753 750 745 741 738 734 732 730 727 724 721 719 718 717 715 714 713 711 711 711 707 702 702 706 708 709 712 715 718 722 725 728 732 734 736 737 738 740 744 746 748 750 752 754 755 757 760
803 808 799 792 797 798 794 797 801 799 796 799 802 800 801 803 804 809 813 812 812 812 802 791 786 786 787 783 779 780 780 775 772 768 765 764 762 759 755 751 748 743 739 735 731 728 727 724 722 719 717 715 714 714 711 710 708 707 707 706 702 699 700 704 706 709 712 715 718 721 724 727 731 733 734 736 739 742 743 745 747 749 751 752 754 757
800 809 807 795 794 799 799 802 806 805 801 800 802 803 804 806 807 811 812 812 812 812 807 798 790 787 784 781 780 781 779 775 773 770 766 764 761 759 754 749 746 742 738 733 729 725 723 721 719 717 715 713 711 710 708 706 705 703 701 702 702 698 696 700 703 706 709 712 714 717 720 723 727 729 731 733 737 740 741 742 744 746 748 750 752 754
800 809 810 800 796 800 804 805 805 806 805 805 809 814 814 809 808 810 810 809 810 811 812 809 799 786 777 775 778 779 778 775 773 772 768 764 761 758 753 748 744 740 736 732 727 723 719 717 716 714 712 710 707 706 704 702 701 699 696 696 699 698 695 697 700 702 705 708 711 714 716 719 723 725 727 731 734 737 738 739 741 743 745 747 750 752
801 807 808 805 804 807 810 808 805 806 808 811 815 819 820 816 813 813 810 806 807 811 812 812 806 789 773 773 776 776 777 775 772 772 769 764 759 755 750 746 742 738 734 730 726 722 718 714 713 711 708 706 704 701 699 698 697 695 692 690 693 696 694 694 697 699 702 705 707 710 712 715 718 722 725 728 731 734 736 736 738 741 743 745 747 749
798 804 807 809 810 813 814 811 810 811 811 815 819 819 818 819 819 818 814 809 810 809 806 811 810 790 772 772 776 775 775 773 771 770 767 763 758 752 747 742 739 736 732 728 725 721 717 713 710 709 706 704 701 698 695 694 693 691 688 686 688 692 691 690 692 695 697 701 704 706 708 711 714 718 721 724 727 729 732 734 736 739 741 743 745 746
797 803 806 809 812 814 816 815 815 814 812 817 821 819 818 819 820 821 817 815 816 811 808 815 811 787 772 773 775 774 773 770 768 767 764 761 755 749 745 740 736 733 728 725 722 718 715 711 708 706 704 701 698 695 692 690 688 687 685 683 684 687 689 687 688 691 694 697 700 703 705 708 711 714 717 720 723 725 729 732 734 736 738 740 743 744
799 803 806 811 813 812 814 816 813 810 814 821 823 821 820 819 820 821 820 821 819 812 812 819 810 787 774 774 775 775 773 768 765 763 761 758 753 747 743 739 735 731 727 723 720 716 713 710 706 704 702 699 695 691 689 686 684 683 682 681 680 683 687 686 685 688 691 694 697 700 703 705 708 710 713 715 719 722 725 728 731 733 735 737 740 742
798 802 804 812 817 814 813 812 806 806 816 824 823 821 821 820 821 820 819 823 821 813 815 819 808 789 779 778 778 778 775 770 764 760 756 753 750 746 742 737 733 730 727 723 719 715 711 707 704 701 699 697 693 689 685 683 681 679 679 679 677 678 684 687 685 685 688 691 694 697 700 702 705 707 709 712 716 719 722 725 727 729 731 733 736 738
798 800 799 805 811 809 807 803 800 806 817 822 819 817 818 820 821 820 820 822 819 816 815 811 805 798 790 784 783 780 776 773 766 760 755 750 747 744 739 736 732 728 725 721 717 713 708 704 701 698 695 693 690 686 682 680 678 676 675 675 675 675 679 684 685 684 685 688 691 694 696 699 701 704 706 710 713 716 718 720 723 725 727 729 731 733
799 801 797 799 800 798 798 799 801 808 814 817 816 815 816 819 820 821 818 814 815 817 812 802 801 805 797 788 785 782 777 773 767 762 757 751 747 743 739 735 731 727 723 718 714 709 705 701 697 694 692 689 686 683 679 677 675 674 672 671 672 673 676 680 683 683 684 687 689 692 693 696 699 702 705 708 710 713 715 717 720 722 724 727 729 730
798 800 795 795 795 795 799 804 806 809 813 814 813 812 814 817 818 818 814 811 815 818 811 802 803 806 797 789 786 781 776 773 767 761 758 753 747 743 738 734 729 724 719 714 709 705 701 697 694 690 687 685 682 680 676 674 672 671 670 668 668 670 672 676 679 682 684 686 688 690 692 694 697 700 703 706 708 710 712 714 716 719 721 725 727 728
796 798 792 792 792 793 802 808 806 807 811 812 811 811 812 813 813 813 812 810 812 813 809 805 806 802 794 788 784 778 774 770 765 759 755 751 746 741 737 733 728 722 717 711 705 701 696 692 688 685 682 679 678 676 673 672 669 668 667 667 667 668 669 672 676 679 682 684 686 688 690 692 695 697 701 704 707 708 709 711 713 716 718 721 724 726
794 795 790 791 793 793 802 809 806 805 808 809 809 810 810 809 808 809 810 809 810 811 809 806 804 798 789 783 780 776 771 767 762 758 753 749 745 741 737 733 728 722 716 709 703 697 691 686 682 679 675 673 672 671 670 669 667 665 665 665 665 666 667 670 674 677 680 682 683 686 688 690 692 694 697 701 704 706 707 709 711 713 716 718 722 725
792 794 790 792 796 795 799 807 809 808 808 806 806 806 805 805 806 807 807 807 809 809 806 804 801 795 786 780 778 774 770 766 762 758 754 749 745 742 738 732 726 720 713 706 699 693 686 680 675 670 667 666 666 666 667 666 665 664 663 663 664 665 667 669 672 676 679 680 682 684 685 687 689 691 694 696 699 702 704 706 708 711 714 716 719 721
790 793 792 795 799 795 796 805 810 809 808 807 805 803 802 802 804 805 805 806 806 805 805 805 801 793 787 782 779 773 769 767 762 758 754 750 745 742 737 730 724 717 710 703 696 688 681 674 667 661 659 659 660 661 663 663 663 662 662 662 663 665 667 669 671 674 677 680 682 682 683 684 686 688 690 692 694 697 699 702 704 708 712 714 716 718
791 793 792 795 797 795 801 809 810 808 810 807 801 798 798 799 801 803 802 803 803 801 802 803 798 791 787 784 780 775 769 766 763 758 754 751 747 741 734 728 722 715 707 701 693 684 676 668 660 655 653 654 656 658 660 660 660 660 660 662 663 664 666 668 670 672 674 676 679 681 682 684 685 686 687 688 690 692 694 696 699 703 708 712 714 715
791 792 792 794 796 798 805 809 807 806 806 801 794 793 795 796 798 801 800 799 801 800 799 798 794 790 786 782 780 775 768 763 760 756 752 750 747 741 734 727 721 714 706 698 690 681 673 665 657 652 651 652 654 656 658 658 657 657 658 660 661 662 663 665 667 669 671 673 675 678 681 682 684 685 686 687 689 690 690 691 694 699 704 708 711 712
789 792 794 795 796 799 803 805 805 803 800 796 793 793 794 795 798 801 800 798 799 798 796 795 792 787 784 781 778 774 767 761 757 754 751 748 744 740 736 729 722 714 706 697 689 681 673 666 658 654 652 652 654 656 657 656 656 656 655 656 657 659 660 663 665 668 670 671 673 676 678 680 682 684 685 686 688 689 689 689 691 696 700 704 707 709
786 790 794 796 797 801 804 806 807 806 803 799 796 794 795 797 798 801 801 799 797 795 793 792 790 785 782 780 776 772 767 759 753 749 748 746 743 739 735 729 721 713 705 697 689 681 674 667 660 655 653 652 653 655 655 654 654 654 653 653 655 658 660 663 665 667 669 671 672 674 675 676 678 681 683 685 685 686 688 689 690 693 697 700 703 706
787 789 793 796 799 801 803 805 809 811 807 802 797 793 793 795 795 797 799 798 794 791 790 790 788 784 780 779 776 772 767 760 755 752 748 746 743 738 732 726 719 711 704 697 690 682 675 670 664 659 655 653 654 655 654 653 652 652 653 654 656 658 660 662 663 665 667 669 670 672 674 673 673 675 678 681 683 685 687 688 690 692 695 698 701 703
790 793 792 795 800 803 803 804 807 809 804 798 794 791 791 794 793 793 798 798 792 789 789 788 787 783 780 779 777 774 770 765 762 758 752 748 743 738 732 726 718 711 704 698 693 686 679 673 667 661 656 654 654 655 654 652 651 651 653 656 657 658 660 660 660 663 666 668 669 670 671 671 670 670 671 675 679 682 685 687 689 692 694 697 701 703
792 795 795 797 802 805 805 803 803 802 799 794 791 790 791 791 788 793 802 800 790 787 788 787 784 781 780 779 777 775 773 770 766 761 755 750 744 738 732 726 720 713 706 699 694 687 680 675 670 665 659 656 656 654 652 651 650 650 652 655 657 658 659 659 660 662 665 668 669 669 668 668 669 668 668 670 674 678 682 686 689 691 691 693 697 701
796 798 800 801 802 802 803 803 801 798 794 791 790 790 789 788 791 802 807 798 787 786 787 785 783 780 778 778 778 775 774 770 766 761 756 750 744 737 731 726 720 713 706 701 696 689 683 678 674 668 662 661 661 656 651 649 649 650 652 655 657 658 659 660 661 663 664 665 668 669 667 665 665 665 666 668 671 674 679 683 687 689 690 691 692 695
800 801 802 802 801 801 802 802 802 799 792 788 790 789 787 791 800 804 798 789 786 787 785 783 782 779 777 777 776 774 771 767 763 760 756 750 745 738 732 726 719 711 704 698 694 689 684 679 674 668 666 667 666 661 655 651 651 652 654 657 660 662 662 662 662 661 662 665 668 669 666 662 662 663 666 668 671 673 676 679 682 685 689 692 692 693
798 801 802 800 800 802 802 803 807 805 793 786 789 790 789 793 797 794 788 787 787 786 783 783 781 777 775 775 774 772 770 766 762 759 756 751 746 740 734 728 722 716 708 701 695 691 687 682 678 674 673 673 670 665 660 657 656 656 657 660 663 664 663 662 663 663 663 666 668 667 664 661 661 663 665 667 669 671 674 677 679 682 686 690 692 693
796 798 801 799 797 801 803 803 803 798 789 785 788 790 789 789 787 786 787 788 785 783 783 782 779 776 774 773 772 770 768 765 762 758 755 751 746 741 735 730 725 719 713 707 702 696 691 686 681 680 679 676 673 669 666 663 662 661 661 663 664 662 660 660 662 664 664 666 668 666 662 660 660 662 665 667 668 669 672 675 679 681 684 687 688 690
793 791 793 793 792 795 797 795 792 788 786 786 786 786 785 785 784 785 786 785 783 783 782 780 778 776 773 771 771 769 767 765 763 759 756 752 747 742 738 732 727 722 717 711 706 700 695 691 688 686 684 679 676 673 671 669 667 665 666 667 665 662 659 659 661 663 662 662 664 663 660 659 660 662 666 670 671 671 671 673 676 678 682 684 686 687
787 787 789 789 789 790 791 790 787 786 784 784 784 784 784 783 783 783 784 783 783 782 780 779 777 774 772 771 770 768 766 765 763 759 756 753 749 744 739 733 728 723 719 714 709 704 701 698 694 690 686 681 678 677 675 673 672 671 671 669 665 663 661 660 663 665 661 656 656 657 657 658 660 661 665 669 672 672 672 674 675 676 678 680 683 686
785 785 788 789 789 791 791 788 785 784 782 782 783 783 783 782 782 782 782 782 781 780 778 777 775 773 772 770 769 767 766 764 762 759 756 753 749 745 740 736 731 726 722 718 715 711 705 700 695 691 688 685 683 681 679 677 676 675 673 669 666 664 663 663 666 667 662 657 657 657 658 658 660 661 663 666 668 669 670 672 675 676 677 679 681 684
786 785 787 788 788 789 789 786 784 783 781 781 782 782 781 781 781 780 780 780 779 778 777 776 774 773 772 769 768 767 765 763 762 759 756 753 751 746 742 738 734 730 725 721 717 713 708 703 699 696 694 691 688 686 684 681 679 676 674 671 669 667 665 665 667 666 664 662 662 661 661 661 662 663 664 666 668 669 670 672 673 675 676 678 679 681
785 786 787 788 788 789 788 785 784 784 781 780 781 781 779 780 779 778 779 779 778 777 776 775 774 772 771 769 768 766 765 763 761 759 756 754 751 748 744 740 736 732 728 723 719 715 711 708 705 702 699 696 693 691 688 685 682 679 676 675 673 671 669 668 667 666 666 666 666 665 665 664 664 664 665 667 670 672 673 675 675 675 676 677 679 681
784 786 787 789 790 790 787 783 783 784 782 779 779 778 778 778 778 778 778 778 777 776 776 775 773 771 770 769 768 766 765 762 760 758 756 754 752 749 746 742 738 734 730 727 723 719 715 712 709 706 703 700 697 694 691 689 686 682 680 678 677 675 674 672 670 669 669 669 669 668 668 667 666 666 667 669 671 672 674 675 675 675 676 677 679 680
781 783 784 786 788 787 783 780 780 782 781 778 777 777 777 777 777 777 777 777 776 776 775 774 773 771 770 769 767 766 764 762 760 759 756 754 752 750 747 743 740 736 732 729 726 722 718 715 712 709 706 704 701 697 695 692 689 686 683 681 680 679 677 676 674 673 673 672 671 671 670 669 669 668 667 668 669 670 671 673 673 673 673 674 675 677
Wind_Speed
2 2 1 3 4 4 4 4 2 0 2 4 5 5 6 6 5 7 8 9 6 4 5 6 6 8 9 10 9 9 8 7 8 8 9 9 7 7 7 7 8 8 8 11 16 18 15 17 25 31 34 32 28 26 25 27 30 33 35 36 37 36 35 33 29 29 30 33 35 30 29 30 28 28 31 33 33 33 32 31 31 32 34 33 30 29
4 4 2 5 5 5 5 5 2 0 3 4 4 5 5 5 6 7 8 10 7 2 5 6 5 7 8 9 9 9 8 8 9 9 10 11 8 6 7 8 9 7 7 8 11 14 13 12 17 24 30 30 26 24 23 26 31 33 34 36 38 36 34 35 33 32 34 38 40 38 35 32 28 26 26 27 32 34 33 32 31 32 35 35 32 29
4 1 4 6 4 2 4 4 1 0 3 3 3 4 4 4 5 6 6 8 7 2 5 6 5 6 7 7 8 7 6 7 8 9 10 10 9 7 7 7 8 8 7 8 9 11 14 13 14 19 25 27 26 26 26 29 32 33 34 34 35 35 34 35 35 37 40 43 43 40 36 33 30 29 26 23 28 32 32 34 33 33 36 37 34 30
3 4 6 5 4 4 4 5 3 3 3 3 4 3 4 5 4 5 4 7 7 3 4 5 4 5 6 5 6 5 5 5 6 6 6 6 6 8 7 6 7 8 9 9 9 9 12 14 12 16 22 26 24 22 25 30 33 33 34 34 34 34 34 34 36 38 41 43 42 36 31 32 34 36 33 28 29 33 33 35 35 35 37 38 36 31
2 7 4 4 6 4 4 5 6 5 4 3 4 4 4 5 6 6 7 8 7 4 4 4 5 4 4 5 6 6 6 6 7 8 10 10 9 9 10 12 12 10 9 9 11 11 10 11 13 17 20 22 22 22 25 31 34 35 34 34 34 33 32 32 35 39 39 37 34 28 23 25 28 30 31 30 31 34 34 35 38 37 37 38 37 34
4 6 2 5 5 5 5 4 4 4 3 4 4 5 6 7 8 8 9 8 5 4 4 5 5 4 4 5 5 6 6 7 9 11 11 11 12 13 12 13 14 14 13 11 11 11 10 10 13 17 18 20 23 26 30 33 36 37 37 35 34 34 33 31 33 37 37 34 33 30 27 27 27 25 29 34 34 34 35 36 39 39 37 38 38 36
3 3 4 4 4 6 5 3 3 3 4 4 4 5 7 7 7 7 8 6 2 3 5 2 1 4 4 5 5 5 6 8 10 10 11 11 12 12 10 11 12 13 13 12 12 12 12 12 11 12 16 20 26 30 32 34 35 36 37 37 36 34 33 32 34 35 34 33 34 34 34 33 32 28 30 39 42 40 39 38 39 39 38 38 39 38
2 3 5 6 5 5 4 3 4 3 3 4 6 6 6 6 7 7 6 3 2 4 5 2 2 2 4 4 4 7 8 11 12 12 13 13 14 14 12 12 12 13 12 10 12 14 14 13 12 13 18 23 27 32 33 33 34 36 38 38 37 36 34 33 35 35 34 35 35 34 33 33 35 34 31 37 40 41 40 36 35 37 37 37 39 39
1 3 3 5 5 3 2 4 5 4 2 5 8 6 6 6 7 7 5 3 3 2 4 4 1 1 4 3 5 8 9 12 12 11 13 14 14 15 14 14 14 14 13 11 12 14 14 16 17 17 21 27 29 31 34 35 36 37 39 39 37 36 35 34 34 34 35 36 36 34 32 31 34 35 34 35 37 38 38 35 33 35 35 36 37 38
1 0 2 5 4 2 3 5 4 4 2 6 7 6 7 7 5 4 3 2 1 1 3 4 2 2 3 3 5 5 7 10 10 9 11 12 12 13 13 15 15 14 14 13 14 13 14 19 24 25 19 19 26 34 36 35 36 37 37 37 37 35 34 33 33 33 35 35 34 34 34 33 32 32 33 34 35 36 36 35 35 36 36 36 35 36
3 3 0 3 1 2 3 4 2 3 3 5 4 5 8 6 3 2 0 2 2 2 3 1 3 2 0 2 4 4 5 7 8 9 12 15 15 14 13 13 14 14 13 13 14 13 15 21 26 27 25 19 10 22 34 35 34 36 36 35 36 35 33 32 31 32 34 36 35 35 36 35 34 33 32 33 33 33 33 34 36 36 36 36 36 35
5 4 3 1 1 2 3 3 3 4 5 6 4 4 5 4 4 4 3 3 3 2 4 2 5 2 2 1 3 4 4 5 7 9 14 17 17 16 14 14 14 13 12 12 12 12 13 18 21 22 23 24 22 11 19 33 36 36 37 37 34 33 33 32 31 31 34 36 36 37 37 38 38 38 37 37 37 36 35 34 35 36 35 34 34 34
5 3 1 1 3 4 4 4 5 6 6 6 5 4 4 3 4 4 3 3 0 4 3 5 8 3 2 1 3 4 4 6 7 8 11 14 16 16 15 15 13 12 12 11 11 11 11 11 13 16 20 20 20 21 13 20 35 38 37 38 35 33 34 33 32 33 34 36 38 39 39 39 40 39 37 36 35 36 39 37 34 34 34 33 33 33
4 5 4 3 4 3 4 4 4 5 5 6 5 3 3 2 2 3 3 2 2 4 5 7 5 0 1 1 3 3 4 5 6 7 9 12 14 14 14 14 14 13 12 11 10 10 10 10 11 13 17 19 17 19 21 14 22 35 38 37 37 35 35 35 35 35 36 37 39 40 41 40 36 33 31 28 24 23 28 32 33 33 32 32 34 37
1 4 4 2 2 2 3 3 1 2 3 3 2 2 3 2 1 1 2 2 3 4 6 7 2 0 2 1 4 1 3 5 7 9 11 12 11 11 13 13 14 14 13 11 10 10 10 10 13 15 16 16 18 19 20 20 17 26 35 37 36 35 35 36 36 36 36 38 39 40 40 38 32 32 36 36 33 29 26 25 28 31 31 31 35 40
1 3 4 0 1 1 4 3 2 3 3 2 1 4 1 2 3 2 2 3 3 3 4 4 1 2 2 3 2 3 7 9 11 14 15 14 13 12 12 13 14 14 13 12 11 11 11 12 14 16 17 17 18 20 19 18 18 21 30 37 38 37 38 38 37 37 37 39 39 39 37 35 32 34 38 41 43 43 39 34 32 32 31 30 31 36
1 4 4 1 4 4 4 3 4 4 2 2 3 1 3 3 4 1 3 3 1 1 2 2 3 4 1 1 3 8 10 11 14 16 16 15 15 14 12 12 13 14 14 13 12 12 12 12 14 17 18 19 19 19 21 20 19 21 26 34 38 37 38 39 39 39 39 38 38 37 35 34 35 37 40 43 44 43 41 40 38 36 34 32 31 33
1 4 5 1 3 2 3 5 6 5 1 2 1 3 4 1 2 2 1 2 2 1 3 3 4 4 1 1 5 9 11 12 15 17 16 16 15 14 13 13 14 15 14 14 13 12 11 10 13 17 19 20 21 20 22 23 21 20 23 30 36 37 37 39 40 40 39 39 37 35 35 36 38 41 43 44 45 42 39 37 36 35 34 35 35 34
2 2 6 2 3 1 2 4 4 5 4 4 1 3 2 2 1 1 1 1 2 2 3 2 3 2 1 2 5 7 9 13 16 17 18 18 17 15 15 15 16 15 13 14 13 11 10 9 11 16 19 21 22 22 22 23 23 21 22 28 34 39 41 41 41 39 39 39 38 36 37 39 41 43 44 43 41 40 39 37 36 35 35 35 36 36
1 1 4 3 2 2 2 2 1 2 3 3 3 4 3 2 2 0 0 1 0 3 3 2 3 2 3 3 3 5 9 13 16 17 18 19 18 16 15 15 15 14 12 12 13 12 11 10 12 16 19 21 22 23 23 22 23 23 21 25 31 37 42 41 40 39 38 39 39 38 39 40 41 44 45 43 39 37 38 38 37 36 37 36 35 35
3 1 3 4 1 2 2 2 1 2 2 2 4 4 3 2 1 0 1 1 2 1 2 2 3 3 3 3 3 4 10 14 16 16 16 17 17 16 16 15 14 13 13 12 12 13 13 11 14 17 19 21 23 24 24 21 21 24 22 23 30 34 37 38 39 39 38 39 39 39 39 40 41 44 43 41 38 36 37 38 38 37 37 36 35 35
1 0 2 3 3 2 2 3 4 4 2 2 2 1 1 1 2 2 1 2 1 1 2 2 3 5 4 3 2 6 11 13 16 16 15 16 18 17 15 15 14 13 13 13 12 13 14 12 13 17 19 21 22 22 23 22 20 23 23 23 30 32 35 38 39 40 39 39 40 39 40 41 41 42 41 38 37 36 37 37 38 38 36 35 36 37
2 2 0 2 2 3 4 5 7 7 6 5 2 0 1 2 3 4 2 3 2 1 3 1 2 5 2 2 3 10 13 13 15 14 14 15 16 16 16 16 15 13 12 12 12 13 12 12 13 17 19 20 21 22 23 22 20 21 23 23 29 31 36 40 41 42 41 38 39 41 41 40 40 40 38 37 37 37 37 36 36 37 36 35 36 38
1 2 1 2 1 4 4 4 3 4 5 5 2 1 1 1 1 4 4 1 1 2 1 0 3 4 1 3 7 13 15 16 15 14 15 14 13 15 16 16 15 14 13 13 13 13 11 13 14 13 14 16 19 21 21 21 20 20 21 21 26 27 34 41 42 41 40 39 39 40 40 39 38 39 37 37 36 36 36 35 35 37 38 37 36 38
1 0 1 2 2 0 2 0 2 1 2 2 1 2 1 1 3 1 1 1 1 1 1 1 4 4 4 7 11 14 17 19 18 17 15 13 13 14 14 14 13 13 15 15 15 15 13 13 13 11 11 15 18 20 21 21 21 20 18 20 27 25 27 35 41 40 39 39 39 38 38 38 37 37 37 36 35 35 35 35 35 38 39 38 37 37
1 1 1 1 3 3 2 3 3 0 1 1 1 2 2 1 2 1 0 1 2 1 2 2 4 7 10 12 14 15 17 20 21 20 18 15 14 14 13 13 13 12 14 17 17 16 14 12 13 12 12 15 18 20 21 21 21 21 19 19 30 31 27 29 35 39 39 38 37 36 36 37 36 36 36 36 35 35 36 36 36 38 39 40 38 37
2 1 2 4 3 4 5 6 2 4 3 1 1 2 3 2 0 2 1 1 3 3 3 3 4 9 14 15 15 16 18 19 20 19 20 18 16 16 15 14 14 14 15 16 15 14 15 14 14 14 12 15 19 21 21 21 20 21 21 19 28 36 34 31 32 34 35 35 34 34 35 35 35 35 34 34 35 35 37 38 37 37 38 38 39 39
3 2 3 5 6 7 7 5 1 6 4 3 3 2 4 3 1 3 2 3 3 3 3 4 7 11 14 14 15 17 18 17 18 18 18 18 17 16 15 16 17 17 17 16 15 15 17 16 15 14 13 14 18 21 22 22 21 22 22 20 27 33 34 32 31 31 31 31 31 32 33 34 34 33 32 33 35 36 37 38 37 38 38 35 35 37
4 2 4 4 5 5 2 4 7 7 3 4 5 3 4 3 4 4 5 5 4 2 5 8 11 12 12 13 14 17 17 16 17 17 15 16 17 16 17 18 19 19 19 18 17 17 17 16 15 15 13 14 17 20 21 21 20 21 19 18 25 30 31 30 28 28 27 28 30 30 31 32 31 29 29 30 33 35 37 37 36 38 40 37 35 37
4 3 5 4 5 3 5 8 8 8 4 3 4 4 5 4 4 6 7 6 6 6 7 9 11 11 10 11 13 16 16 14 14 14 15 17 17 17 19 20 20 20 20 20 19 18 17 17 16 16 14 13 15 18 19 18 19 19 16 18 22 25 29 29 28 28 28 28 29 30 30 30 29 28 28 29 31 34 35 36 35 35 38 40 38 35
3 3 4 1 4 3 6 7 6 7 6 4 2 4 3 2 4 4 4 4 3 4 7 7 8 9 8 10 14 14 15 15 14 16 18 18 17 18 21 21 20 19 20 21 20 19 18 18 17 16 15 13 14 17 18 17 17 17 14 18 21 21 24 27 28 28 29 31 31 30 30 29 29 29 29 30 32 33 33 34 34 34 35 37 37 33
2 2 3 3 3 4 5 9 6 3 2 3 4 6 7 5 4 4 4 3 2 3 7 8 8 9 9 12 14 14 15 17 17 17 17 16 16 19 20 20 20 20 20 21 21 20 21 20 19 17 15 13 15 17 17 16 15 15 14 17 20 19 21 25 27 27 27 27 27 29 30 30 29 29 31 33 34 34 34 33 33 33 31 33 36 35
2 0 3 1 1 5 2 8 7 1 2 2 2 5 6 5 4 4 5 3 3 2 5 8 8 9 11 12 14 16 17 16 16 15 14 14 17 19 19 19 20 21 21 21 22 22 21 19 18 17 13 11 14 17 17 16 15 14 15 19 20 20 21 24 26 27 26 23 22 26 29 30 31 31 32 34 36 36 35 33 33 33 30 31 36 35
2 1 2 1 1 4 1 7 4 0 1 3 3 0 3 5 3 5 7 4 4 3 2 4 8 10 11 11 12 17 17 15 14 15 12 12 15 17 19 20 21 21 22 21 21 21 19 18 16 13 10 11 15 16 16 18 16 13 13 17 20 22 24 25 25 27 27 26 25 25 26 27 28 30 32 35 38 38 37 36 35 33 31 31 33 33
3 3 2 1 0 2 2 4 1 2 2 4 4 3 3 4 3 3 6 5 5 3 5 6 9 11 11 10 11 14 16 16 15 13 11 13 15 16 19 20 20 21 21 21 20 20 20 19 16 9 7 10 13 15 15 16 16 13 12 14 19 20 22 23 23 24 24 24 25 25 24 25 25 25 27 31 34 35 35 34 33 32 32 32 33 34
3 2 1 1 1 1 2 2 1 2 1 2 3 2 3 3 1 3 4 3 4 4 8 9 10 11 10 10 11 12 15 17 13 8 9 16 19 18 18 18 19 20 20 19 19 20 20 20 19 12 7 10 11 13 15 14 14 12 11 11 16 17 17 18 19 20 20 20 22 23 24 24 23 22 24 28 31 31 30 30 30 30 31 31 32 33
5 3 1 2 1 1 1 1 2 3 3 3 4 4 2 3 3 1 1 5 5 6 9 8 10 12 10 9 11 13 14 14 10 7 13 19 20 19 18 18 19 19 19 20 22 24 25 26 26 21 9 10 11 11 12 11 11 9 7 8 11 13 14 16 17 20 20 20 22 24 25 25 23 21 21 23 26 27 26 27 30 32 32 30 30 30
5 4 3 1 1 1 1 1 1 2 3 4 5 7 4 4 5 4 2 3 6 7 8 8 9 12 11 10 12 13 12 12 10 11 15 19 20 20 19 19 19 19 21 22 23 27 30 29 27 23 13 4 5 6 8 9 9 6 4 9 13 16 18 21 22 24 24 25 26 26 26 27 28 25 22 21 22 23 23 23 23 26 28 28 28 29
6 4 4 4 3 2 2 1 1 2 4 6 6 8 6 4 5 2 3 2 6 8 8 7 9 11 9 9 12 11 9 10 10 10 14 18 19 19 18 18 18 21 26 27 24 25 27 27 26 25 23 20 16 11 5 8 8 5 6 13 17 19 20 21 24 25 25 26 27 27 29 28 27 28 28 28 28 27 27 25 22 23 25 25 26 29
5 4 4 4 2 1 1 1 2 2 4 6 6 7 7 4 0 4 4 3 6 8 8 7 9 10 7 7 9 8 7 7 8 10 14 16 18 18 18 19 18 19 24 27 28 29 28 26 25 23 24 26 26 23 13 3 10 8 9 16 18 18 18 20 24 25 24 24 24 25 29 30 26 25 28 30 32 31 28 25 25 27 28 28 30 31
3 3 2 3 1 2 1 1 3 2 4 5 5 5 4 2 4 5 4 5 7 8 8 7 8 9 7 6 7 6 6 7 8 11 13 15 18 19 20 23 24 24 25 26 28 30 27 24 22 22 27 30 29 29 22 4 8 10 10 16 16 16 19 22 24 23 21 20 20 23 28 30 29 28 28 28 30 30 28 26 25 27 27 28 30 31
1 2 2 2 1 2 1 1 2 2 4 4 3 2 3 5 2 2 3 5 6 7 8 7 8 7 6 5 5 5 7 9 10 11 13 16 18 18 19 22 24 27 30 32 32 32 28 25 25 28 31 31 29 29 28 19 10 7 6 8 5 4 14 21 23 23 19 14 17 24 28 28 29 29 28 28 28 28 29 28 27 27 26 26 27 28
2 1 2 1 1 1 1 1 1 1 4 3 1 3 3 2 3 5 3 4 5 6 6 6 6 7 6 5 6 6 7 10 11 11 12 15 17 17 18 20 20 21 26 30 32 34 30 24 24 27 28 28 28 30 31 28 23 19 17 15 15 7 9 18 19 20 20 17 21 27 27 26 27 27 26 28 29 28 27 26 26 28 28 28 27 26
2 2 1 2 2 1 1 2 1 3 5 3 2 1 2 4 5 5 3 3 5 5 4 4 5 7 6 4 6 7 7 9 11 12 12 14 16 16 17 19 20 21 24 26 29 33 30 25 25 26 25 26 29 30 31 28 24 22 22 21 21 14 1 11 14 14 20 25 28 29 26 23 25 25 24 25 26 27 27 26 26 26 27 28 28 26
3 4 3 2 2 2 3 4 4 4 5 3 3 4 5 5 4 5 5 2 4 4 3 4 5 8 7 4 5 6 6 7 9 10 11 12 15 16 17 18 20 22 24 26 30 33 30 26 25 24 23 25 30 30 30 29 26 24 24 24 24 22 12 1 8 14 18 25 27 27 25 22 21 24 25 24 22 22 24 27 27 27 25 25 26 24
4 4 3 1 1 1 2 2 2 2 4 4 3 4 4 3 3 3 3 1 4 4 4 4 5 7 7 5 4 5 6 6 7 9 9 10 12 15 16 18 22 25 27 27 30 33 30 24 23 22 23 27 30 29 28 29 28 24 23 25 27 28 22 14 7 11 6 11 18 21 23 22 21 23 26 28 26 22 19 20 23 24 25 26 26 24
3 2 2 0 0 1 1 3 3 3 5 5 3 3 2 3 3 2 2 2 5 4 4 5 6 6 6 5 5 5 6 6 6 8 8 8 11 14 15 15 19 24 26 25 27 29 27 24 24 24 25 26 27 27 26 28 28 26 27 28 29 28 27 23 16 13 13 11 9 13 19 20 21 21 24 27 29 28 24 22 22 20 19 22 23 23
1 2 1 1 1 1 3 6 5 5 6 4 2 3 2 3 4 2 2 4 4 3 4 5 5 5 5 6 6 5 6 6 6 7 7 7 8 11 13 14 18 22 25 26 28 28 26 25 24 25 25 25 25 26 25 26 29 30 30 31 30 28 27 25 21 20 21 18 13 8 8 11 14 16 19 21 22 20 18 20 22 22 21 24 25 25
2 2 1 1 1 1 3 5 4 5 6 6 3 3 4 4 3 2 3 4 3 4 5 6 6 5 5 6 6 5 5 6 6 6 7 6 7 8 12 16 19 22 24 26 28 29 27 25 24 24 25 25 25 25 25 25 29 32 31 30 29 27 25 24 23 23 23 21 18 15 9 5 5 6 9 12 12 10 7 8 12 15 17 21 24 24
2 0 1 1 1 2 3 4 3 1 4 6 4 5 6 5 4 2 2 4 4 4 4 5 7 7 6 7 7 5 5 6 6 6 6 6 6 8 13 18 20 22 24 25 27 28 27 26 25 24 24 25 25 26 26 25 28 32 32 29 27 26 24 22 22 21 22 22 21 19 15 9 5 4 3 4 6 6 5 5 8 10 12 14 16 18
3 4 4 3 3 4 6 6 5 3 3 6 5 5 6 5 4 4 0 2 3 4 3 4 6 7 6 7 8 7 5 6 7 7 6 6 8 10 14 18 20 21 23 24 25 26 26 27 26 25 24 25 26 26 26 26 27 30 31 29 27 25 22 21 20 19 18 20 20 20 18 14 8 4 2 2 3 4 5 6 7 9 12 14 16 17
Wind_Direction
123 97 313 234 238 252 257 285 305 18 308 307 310 297 288 294 288 283 283 282 291 302 277 269 275 277 279 283 282 285 297 302 295 294 293 288 282 277 274 265 250 243 244 242 244 248 240 223 224 226 226 224 217 212 202 187 183 180 178 179 183 185 184 180 177 176 183 194 196 201 203 199 200 202 200 196 194 199 207 212 216 213 208 209 210 208
59 80 256 233 225 241 264 298 332 6 314 306 291 290 289 282 278 280 282 289 302 303 277 296 313 300 291 292 292 289 290 289 282 274 274 275 271 261 261 265 259 253 255 252 247 243 235 221 220 224 224 221 214 207 199 186 181 180 181 184 185 185 183 186 188 183 189 201 199 199 200 194 191 195 198 196 194 197 203 209 214 214 211 210 210 210
28 54 257 249 247 287 295 297 309 244 308 304 288 301 297 280 283 285 281 298 316 324 291 314 330 300 285 279 279 276 270 266 264 260 261 268 276 274 259 261 268 273 275 268 260 248 240 231 218 217 218 217 213 204 194 184 181 180 182 185 185 185 186 193 197 191 195 206 206 202 199 190 185 187 191 194 196 198 202 207 212 214 213 211 210 208
3 263 255 279 325 1 334 318 358 9 355 333 310 316 296 297 318 308 306 316 320 311 281 306 322 298 294 299 293 284 273 273 279 285 293 300 305 305 309 318 309 292 282 272 270 265 257 250 227 210 212 213 210 201 189 180 178 180 182 186 186 188 193 197 198 197 200 206 205 202 197 190 187 190 190 189 194 200 203 206 210 213 213 211 210 208
275 252 259 352 353 11 3 348 13 18 357 324 297 291 290 308 321 310 314 319 320 309 289 335 348 310 320 340 323 315 322 331 349 8 7 5 6 358 356 357 353 338 313 284 274 269 264 257 234 220 214 205 198 195 188 181 180 181 183 189 191 191 194 199 201 200 199 199 197 194 189 183 183 185 185 183 188 195 199 204 207 211 212 211 211 209
269 266 352 28 359 15 21 351 11 29 346 314 281 271 287 306 310 309 319 324 338 328 311 7 3 294 313 334 309 313 343 359 13 25 18 8 9 9 7 360 358 358 346 325 304 286 272 259 239 229 217 194 186 192 192 186 184 184 186 190 192 193 194 199 203 199 192 192 191 187 181 177 176 177 180 184 189 192 197 202 205 207 210 210 210 209
264 319 37 69 22 19 21 340 338 30 6 306 274 282 295 304 305 306 314 319 335 299 290 342 284 270 311 310 298 328 8 16 16 20 14 9 7 5 5 358 356 357 351 341 334 325 307 283 257 233 215 194 187 191 192 189 186 185 187 189 190 192 194 198 202 197 188 189 191 189 187 184 183 183 184 189 192 195 199 202 204 205 207 208 209 209
243 357 26 56 39 28 19 329 298 350 4 282 285 308 308 302 296 290 292 283 262 287 300 291 193 258 305 292 331 9 26 19 12 13 10 6 0 356 357 357 356 352 343 339 339 340 337 315 285 247 217 199 192 191 187 184 184 186 187 188 190 192 195 199 202 196 189 189 190 190 191 191 192 192 192 193 194 195 199 202 204 205 206 206 207 209
282 32 32 60 47 30 333 290 291 341 351 275 292 308 300 290 283 276 270 265 269 298 308 312 66 114 278 293 6 22 32 18 6 6 4 359 354 352 350 349 350 345 338 339 342 341 344 341 326 291 239 208 192 186 184 183 183 186 188 188 189 192 195 199 201 197 193 192 191 190 191 194 197 198 197 196 195 195 198 202 204 204 205 206 206 208
347 106 158 99 62 323 286 284 313 12 311 276 293 307 310 304 285 269 243 236 316 350 274 293 55 82 291 334 5 14 33 15 355 355 355 350 350 349 345 344 343 340 336 337 341 340 339 343 346 338 302 240 199 184 183 183 181 183 186 187 188 191 195 198 199 197 194 192 192 192 192 194 198 200 198 196 196 197 198 199 201 202 204 206 206 207
325 295 31 83 42 276 288 298 345 26 318 311 336 331 327 329 334 350 186 127 72 342 262 222 92 105 261 13 22 32 41 12 350 350 349 347 348 348 344 341 337 335 333 333 333 333 335 336 341 348 343 326 270 198 183 178 179 182 184 187 189 191 195 197 198 197 194 192 192 195 196 196 197 198 196 195 198 200 199 197 197 199 202 204 205 206
351 5 19 359 325 346 350 331 343 3 354 9 20 353 349 344 350 13 5 40 73 261 255 26 23 18 183 164 51 53 46 26 8 355 349 345 342 340 337 335 332 330 326 326 326 325 332 335 336 340 342 345 342 304 202 181 178 181 184 188 190 191 193 196 200 199 196 193 193 197 199 199 200 199 196 197 199 200 200 199 196 197 200 201 203 205
353 13 353 308 357 25 37 2 340 348 5 19 16 16 34 8 353 11 344 354 74 248 270 359 355 342 177 160 72 44 18 16 10 357 350 344 336 332 331 329 326 325 322 319 321 322 325 327 330 333 329 332 346 341 299 207 184 180 186 189 189 191 194 196 200 201 197 194 196 198 201 203 203 201 199 199 202 202 202 201 199 197 197 197 199 202
340 326 337 6 358 11 74 57 345 332 351 358 355 28 70 46 8 352 313 321 298 273 302 334 342 311 201 152 108 46 356 354 354 353 349 340 331 324 322 322 319 319 319 315 314 316 319 319 316 319 319 319 329 339 332 293 210 188 185 189 190 190 193 195 197 200 198 197 199 201 203 206 205 202 200 201 207 212 210 206 202 200 199 197 198 202
24 304 309 353 311 302 73 76 312 297 315 314 328 80 104 116 103 259 261 301 301 287 305 322 343 267 287 179 142 104 337 346 346 344 342 334 327 320 316 317 317 317 317 316 314 311 308 311 310 308 308 314 320 325 331 322 268 211 189 187 191 189 189 194 196 198 199 200 202 204 205 206 205 205 203 202 206 215 219 216 209 204 202 201 201 204
134 255 257 300 27 56 58 26 347 350 326 296 43 73 66 179 161 202 238 232 265 289 295 302 308 286 248 165 141 355 348 346 340 337 339 334 327 324 319 317 319 318 317 315 313 311 309 307 306 307 308 310 316 316 318 323 301 250 207 190 190 190 189 193 196 198 201 203 203 205 204 203 206 209 207 205 206 210 212 214 213 209 206 205 206 207
20 280 265 51 36 49 66 32 13 14 314 320 33 21 278 226 155 173 281 268 306 321 285 286 298 315 344 197 326 352 347 337 336 334 334 331 324 323 321 318 318 316 315 314 310 306 307 308 305 306 308 308 308 309 307 309 307 278 235 201 190 190 190 191 196 199 202 204 204 204 203 201 205 211 211 210 210 210 211 212 213 211 208 207 209 210
174 287 287 84 68 35 64 62 35 12 28 97 29 284 289 338 102 114 280 314 349 241 274 294 285 300 359 300 322 343 337 331 334 330 326 326 325 323 320 317 316 313 310 307 305 303 300 301 304 303 304 304 300 298 297 297 300 293 259 221 195 187 189 192 195 198 200 202 203 203 201 201 205 211 214 214 213 212 212 214 214 213 211 209 208 210
151 294 307 4 118 137 35 58 33 352 28 96 193 296 41 64 344 12 78 324 319 283 281 286 285 285 184 235 304 320 322 329 331 328 327 328 328 325 320 318 316 313 311 308 305 306 304 298 298 299 300 300 295 290 291 292 292 292 271 239 208 191 191 194 195 197 199 201 202 203 203 203 206 211 215 216 215 214 213 214 215 214 213 212 209 209
76 86 289 304 139 130 28 31 162 301 347 39 22 2 38 128 187 233 145 137 279 293 289 299 319 298 206 213 261 292 322 335 332 329 328 326 325 321 316 316 315 312 310 310 307 306 306 302 296 296 296 296 293 288 288 287 286 288 275 247 222 201 193 194 195 195 197 199 201 203 204 204 206 211 215 216 215 215 214 214 215 214 213 212 209 207
49 64 274 301 13 93 1 306 194 197 272 18 37 13 351 351 66 29 290 159 149 252 286 298 299 273 241 205 214 304 335 337 331 327 323 319 319 316 312 311 312 312 309 306 308 308 307 305 299 298 296 294 291 286 284 283 283 289 280 244 225 210 194 191 194 195 197 199 200 202 204 205 206 211 214 214 214 215 215 214 214 214 212 210 207 204
65 38 281 311 336 28 355 354 48 69 83 82 80 146 190 20 61 76 303 278 182 166 229 271 288 280 266 178 179 335 340 331 325 323 317 315 316 313 311 310 307 309 307 304 309 310 306 305 302 302 299 295 291 285 282 282 281 289 283 241 219 212 198 190 193 196 197 199 199 202 205 206 208 211 213 212 212 214 215 214 213 212 212 210 207 204
145 112 319 295 335 67 68 62 76 89 88 80 62 186 138 90 92 122 222 283 306 244 227 237 285 275 251 135 1 339 332 323 320 319 314 313 314 313 313 312 309 306 301 302 309 310 306 303 301 301 297 292 289 284 281 281 279 288 284 242 215 210 201 193 194 197 198 199 200 202 206 208 208 210 211 211 211 213 216 216 213 211 211 210 207 204
104 78 322 290 65 101 101 83 107 122 88 72 13 333 86 30 153 179 201 255 303 271 261 340 275 270 301 16 346 334 325 320 319 320 318 314 314 317 315 314 312 309 307 308 310 307 305 303 301 300 295 288 287 283 279 279 278 287 283 240 212 211 207 197 194 196 197 198 201 203 204 207 208 209 210 210 210 212 213 215 214 211 210 209 207 204
310 350 344 337 322 303 128 333 263 219 83 89 256 276 216 301 323 256 210 312 263 238 55 354 270 278 315 333 334 329 322 320 321 322 320 316 316 319 317 314 311 311 313 313 311 307 303 301 298 296 291 286 285 282 279 279 278 284 280 235 209 212 216 203 194 194 196 198 201 202 203 206 208 209 210 209 209 210 211 213 213 211 210 209 208 206
161 210 110 53 310 308 296 288 286 237 84 118 227 257 237 282 355 21 202 265 245 272 345 274 261 291 311 321 326 325 323 322 321 323 322 321 321 319 317 315 310 310 311 308 307 304 299 298 297 294 291 287 285 280 275 277 277 281 283 244 209 206 217 213 198 193 195 199 200 201 203 205 206 208 209 208 207 209 210 212 212 211 210 209 208 208
95 226 192 177 215 248 248 257 238 127 121 161 224 246 241 250 346 98 108 253 265 285 275 235 262 299 310 319 322 322 324 322 320 323 325 324 325 323 320 317 312 310 309 305 302 301 301 303 299 294 288 284 285 281 275 275 277 281 285 254 211 202 209 212 203 195 195 198 200 201 203 205 206 208 208 207 206 208 211 212 212 211 210 209 209 208
78 314 256 206 217 237 247 261 108 111 126 173 190 224 247 246 130 109 172 233 256 304 290 286 312 311 308 315 319 319 322 322 318 321 323 323 323 320 316 314 311 309 307 303 300 300 303 303 297 293 287 281 283 282 277 274 275 282 282 249 210 201 202 202 200 198 196 197 200 202 204 206 207 207 208 206 206 209 211 212 212 213 212 211 211 210
119 261 256 221 248 259 181 109 107 111 131 182 181 208 231 207 156 178 235 230 192 215 272 296 314 310 304 311 317 319 322 320 315 314 317 318 316 315 316 316 314 313 313 309 304 303 302 299 294 290 284 278 278 278 277 273 271 281 276 237 208 201 200 198 197 197 198 198 201 203 205 206 207 207 206 205 206 209 212 213 212 213 213 212 213 213
117 260 247 222 279 291 125 128 131 127 133 178 199 227 225 214 215 223 238 227 194 216 258 286 301 299 299 308 313 317 318 315 311 313 319 321 319 321 322 320 319 318 315 310 306 303 299 294 290 285 279 275 271 269 271 267 267 276 260 218 202 197 194 194 195 196 197 199 201 203 203 204 205 204 203 203 206 210 213 213 211 211 213 213 215 215
105 262 249 184 313 297 142 139 140 137 137 141 183 261 261 297 295 262 254 246 213 248 274 285 299 300 306 316 316 317 320 321 320 322 324 324 324 326 324 320 318 313 309 307 305 303 299 295 290 281 273 266 259 260 262 257 261 272 251 210 199 193 186 186 190 193 197 200 200 200 199 200 202 201 200 200 205 211 215 216 213 210 210 211 213 215
134 259 302 49 3 295 169 153 162 169 121 79 39 354 348 349 323 285 280 266 204 266 307 326 331 322 319 321 320 321 326 328 326 326 324 321 324 326 322 318 316 313 311 310 308 304 301 298 294 284 271 257 249 249 250 249 256 264 242 208 197 191 184 183 186 192 199 202 200 198 198 198 199 198 198 198 203 210 216 218 217 214 208 207 213 215
147 196 317 37 354 301 193 147 159 170 16 353 345 358 344 315 286 296 307 280 214 255 341 345 326 311 312 317 321 326 330 332 328 323 320 319 324 325 320 319 321 319 316 313 309 306 302 300 296 286 267 244 238 239 239 242 251 255 233 210 196 188 184 185 188 194 202 207 207 205 203 201 200 199 197 197 200 207 212 216 219 218 211 207 213 216
66 76 275 195 217 303 87 119 133 175 341 266 240 154 322 289 282 312 307 266 224 248 318 298 287 296 307 317 326 327 327 329 323 314 314 322 325 324 323 326 324 318 315 313 309 308 308 308 305 291 257 231 229 233 235 236 242 254 241 213 195 185 183 186 190 196 204 211 215 215 211 207 205 204 200 199 201 204 207 211 216 218 214 209 210 213
35 14 303 183 244 287 98 97 54 257 206 227 227 209 255 251 221 292 293 238 205 269 318 312 302 304 310 318 326 323 321 323 319 309 315 328 331 330 329 327 323 318 317 315 313 316 320 321 320 308 248 228 228 227 231 233 236 251 249 214 192 186 186 188 193 201 207 211 215 217 215 213 212 211 206 202 202 204 206 207 210 214 214 211 208 209
86 48 344 358 348 345 39 53 299 272 242 275 284 265 265 274 331 7 333 253 223 310 337 329 309 306 313 322 326 324 320 318 311 303 328 338 338 336 330 323 320 319 318 318 319 321 323 325 330 327 261 232 234 226 225 228 232 249 259 222 196 191 191 189 195 205 209 211 214 213 210 208 209 212 211 205 203 205 207 205 207 210 211 209 209 211
96 91 22 349 358 47 22 263 267 298 302 316 319 298 282 296 290 308 310 266 267 327 340 322 310 315 322 326 328 325 320 318 320 333 345 344 338 331 326 322 321 321 323 325 324 325 330 335 340 339 305 239 230 222 222 232 237 252 269 232 198 183 179 182 195 208 212 211 209 204 198 196 197 205 212 208 203 203 204 206 208 209 208 207 207 209
83 97 108 75 18 55 57 348 336 309 275 264 273 274 269 262 243 198 150 270 286 328 332 314 314 320 324 330 332 328 326 334 344 343 341 340 334 329 329 328 326 327 329 329 329 332 336 337 341 350 355 322 255 236 230 242 252 251 212 187 178 172 176 185 197 208 211 210 205 197 191 190 190 195 206 209 205 202 203 207 207 202 202 204 203 203
55 70 94 79 27 25 61 355 278 208 241 253 258 270 280 266 239 165 91 282 287 316 323 314 318 321 323 331 332 333 339 344 343 334 331 331 329 328 331 331 332 333 332 333 336 337 336 337 345 3 21 24 8 348 296 242 254 263 194 175 173 177 185 191 198 205 211 212 208 200 196 197 195 192 195 198 198 200 206 210 206 197 197 201 203 206
26 18 48 62 16 331 56 322 270 208 244 262 256 266 279 267 261 40 27 307 300 319 316 314 325 323 319 326 330 340 349 337 325 320 321 322 325 330 336 337 335 333 332 336 342 342 344 348 351 4 23 21 8 2 3 251 235 242 198 177 175 183 193 198 203 209 213 214 215 210 205 206 205 198 193 193 193 196 204 209 206 202 202 202 204 209
3 356 37 83 33 336 57 304 287 255 250 259 250 263 297 14 44 24 343 288 299 314 307 313 328 321 314 324 331 335 330 312 304 309 316 324 331 336 340 340 339 338 338 342 347 349 352 352 352 8 24 19 9 10 20 43 217 229 197 176 175 188 197 199 206 215 216 213 218 218 209 202 201 199 196 194 192 194 198 203 203 204 206 205 205 209
343 333 355 78 35 329 183 231 294 286 256 248 239 280 14 51 35 293 265 264 285 299 303 316 325 313 305 312 313 307 306 308 311 318 326 334 337 338 340 343 344 344 344 347 352 355 355 353 359 14 20 16 12 17 28 44 56 47 82 105 94 205 208 205 207 211 213 217 226 223 210 197 192 192 192 191 189 190 193 197 200 202 206 207 209 211
161 161 303 273 215 22 9 316 349 286 262 265 344 356 24 92 211 237 246 273 280 285 301 316 317 307 304 300 296 295 301 313 322 329 332 335 338 340 342 345 348 347 347 349 352 354 354 355 5 13 12 11 16 22 28 37 43 45 48 39 19 358 228 225 225 212 202 211 224 221 211 198 190 188 189 191 191 191 192 194 195 197 200 203 206 211
164 159 226 248 216 110 41 290 244 226 248 239 128 139 230 212 208 195 190 265 284 287 309 322 311 308 310 299 294 301 309 318 327 332 335 338 341 344 344 346 349 350 350 351 352 353 355 359 5 6 5 11 19 24 27 29 33 37 31 14 7 16 210 235 259 246 213 208 213 214 210 202 191 185 188 194 195 193 193 195 195 195 197 198 200 206
215 187 174 207 230 184 175 215 225 233 252 243 164 181 216 241 238 189 180 261 290 282 307 330 313 311 319 307 294 304 312 315 322 329 332 336 340 344 346 347 351 352 352 353 355 356 358 2 3 358 359 11 19 23 24 24 27 29 18 5 10 25 45 93 293 279 228 200 195 198 201 199 188 182 188 199 203 198 195 195 194 193 194 195 199 203
226 181 141 130 269 200 179 229 255 282 285 275 240 204 205 234 243 189 157 314 292 280 303 321 307 310 323 317 300 308 313 310 316 324 327 331 338 345 348 349 352 354 355 356 358 357 356 359 3 0 3 11 16 18 19 20 23 22 11 6 17 28 42 60 16 317 268 169 163 171 177 180 178 176 181 190 198 201 200 199 197 195 192 192 197 203
260 141 121 115 7 95 255 270 280 279 262 250 231 212 224 271 262 200 158 245 272 288 307 306 304 317 330 325 312 311 310 306 312 319 322 331 340 344 349 351 351 353 354 356 358 357 357 2 7 7 8 10 10 11 13 14 16 17 14 15 21 29 41 55 50 21 26 57 105 143 157 165 168 169 173 181 190 197 202 205 206 203 198 194 196 202
263 100 123 247 215 159 235 252 256 260 259 250 208 185 203 264 275 264 233 249 273 322 321 305 313 332 338 333 324 317 313 308 308 314 318 330 339 342 348 350 350 351 353 355 358 1 4 7 8 9 11 11 8 9 10 9 10 13 16 19 22 26 34 40 41 39 40 42 50 79 126 149 156 163 168 172 179 187 194 201 203 202 204 206 206 206
128 84 141 220 302 316 282 279 294 311 311 310 290 229 212 217 228 272 302 290 324 358 337 323 330 336 340 339 330 324 322 312 299 300 311 323 334 340 345 348 349 352 354 357 360 3 6 7 7 9 11 11 9 10 11 8 9 12 16 19 21 24 27 27 28 32 35 36 40 42 46 75 111 140 159 164 167 166 170 195 203 204 211 216 216 214
98 116 156 90 17 295 266 259 255 280 298 290 264 229 223 211 175 118 340 328 350 350 327 331 340 341 347 350 343 338 325 308 300 302 307 316 325 331 340 346 349 352 355 358 1 4 6 7 7 8 10 10 10 12 13 9 7 11 14 16 19 21 22 23 25 26 24 23 27 28 29 40 66 89 110 141 158 156 159 199 218 219 223 226 226 225
161 182 169 151 190 226 235 239 222 198 256 263 239 219 224 208 142 112 356 319 340 324 315 346 353 348 348 349 352 357 338 306 307 311 308 316 324 328 338 345 348 351 354 357 1 4 5 5 6 8 9 8 8 11 14 10 7 8 10 13 17 19 20 21 24 24 18 14 15 17 21 29 42 72 116 172 190 182 181 189 203 218 229 235 238 240